Volver al catálogo

SL-12 R/B(2)

ActivoGEO
NORAD 17125·ROCKET BODY·🇷🇺 Russia

Lanzado Nov 18, 1986 desde Baikonur Cosmodrome

Loading…

TLE

ActualizadoSource: Space-Track

Época: Sep 14, 2026, 14:16 UTC

1 17125U 86090D   26257.59510330 -.00000374  00000-0  00000-0 0  9992
2 17125  10.2084 322.1844 0008808 193.9656 165.9897  1.00209359145767

Sigue SL-12 R/B(2) en tiempo real con AllMySat

Download on the App Store